{"data":{"norad_id":43677,"intl_designator":"2018-084G","name":"TEN-KOH","alt_names":[],"object_type":"PAYLOAD","status":"ACTIVE","operator":null,"country":"JPN","launch_date":"2018-10-29","launch_site_code":"TANSC","launch_vehicle":null,"mission":null,"orbit_class":"UNKNOWN","rcs_meters":null,"size_class":null,"mass_kg":null,"dimensions":null,"purposes":[],"wikipedia_slug":null,"has_3d_model":false,"image_url":null,"decayed_at":null,"tle_current":{"epoch":"2026-05-25T02:05:20.806368Z","epoch_age_seconds":70765,"freshness":"FRESH","line1":"1 43677U 18084G   26145.08704637  .00002375  00000+0  18225-3 0  9998","line2":"2 43677  98.0756 336.4779 0009374 191.9139 168.1864 15.02811720412692","mean_motion":15.0281172,"eccentricity":0.0009374,"inclination_deg":98.0756,"raan_deg":336.4779,"arg_perigee_deg":191.9139,"mean_anomaly_deg":168.1864,"bstar":0.00018225,"rev_number":41269,"period_min":95.820386601723,"perigee_km":551.72884466904,"apogee_km":564.73314738799,"semimajor_km":6936.3679960285,"source":"CELESTRAK","updated_at":"2026-05-25T13:37:55.866778Z"}}}